This demonstration page uses our WeatherBlox Daily Observations layout. Learn more.

Left ArrowRight Arrow

34.16533, -84.80231

Hourly Observations for July 19, 2016

Temp ( °F °C ) Dew Point ( °F °C ) Humidity (%) Winds ( mph kmh ) Pressure ( in mb ) Visibility ( mi km ) Precip ( " mm )
12:53 am 00:53 Clear 73 22.8 72 22.2 96 96 Calm 30.16 1022 10 16 0.00 0.00
1:53 am 01:53 Clear 73 22.8 71 21.7 94 94 Calm 30.16 1021 10 16 0.00 0.00
2:53 am 02:53 Clear 73 22.8 71 21.7 94 94 Calm 30.16 1021 10 16 0.00 0.00
3:53 am 03:53 Clear 72 22.2 71 21.7 97 97 Calm 30.16 1021 10 16 0.00 0.00
4:53 am 04:53 Clear 72 22.2 70 21.1 94 94 Calm 30.16 1021 10 16 0.00 0.00
5:53 am 05:53 Clear 71 21.7 70 21.1 96 96 Calm 30.17 1022 10 16 0.00 0.00
6:53 am 06:53 Sunny 72 22.2 70 21.1 94 94 Calm 30.19 1022 10 16 0.00 0.00
7:53 am 07:53 Sunny 75 23.9 71 21.7 88 88 Calm 30.20 1023 10 16 0.00 0.00
8:53 am 08:53 Sunny 78 25.6 71 21.7 79 79 VRB 3 6 30.21 1023 10 16 0.00 0.00
9:53 am 09:53 Sunny 83 28.3 73 22.8 72 72 Calm 30.22 1024 10 16 0.00 0.00
10:53 am 10:53 Sunny 84 28.9 72 22.2 67 67 Calm 30.22 1023 10 16 0.00 0.00
11:53 am 11:53 Sunny 89 31.7 72 22.2 57 57 ENE 3 6 30.20 1023 10 16 0.00 0.00
12:53 pm 12:53 Sunny 91 32.8 72 22.2 54 54 Calm 30.18 1022 10 16 0.00 0.00
1:53 pm 13:53 Mostly Sunny 93 33.9 69 20.6 46 46 undefined N/A 30.15 1021 10 16 0.00 0.00
2:46 pm 14:46 Mostly Cloudy with Thunderstorms 91 32.8 71 21.7 52 52 VRB 5 7 30.12 1020 10 16 0.00 0.00
2:53 pm 14:53 Mostly Cloudy with Thunderstorms 91 32.8 72 22.2 54 54 S 6 9 30.14 1021 10 16 0.00 0.00
3:25 pm 15:25 Mostly Cloudy with Nearby Thunderstorms 91 32.8 70 21.1 50 50 VRB 3 6 30.12 1020 10 16 0.00 0.00
3:32 pm 15:32 Mostly Cloudy 90 32.2 71 21.7 54 54 VRB 3 6 30.12 1020 10 16 0.00 0.00
3:53 pm 15:53 Partly Cloudy 91 32.8 70 21.1 50 50 Calm 30.12 1020 10 16 0.00 0.00
4:19 pm 16:19 Sunny with Nearby Thunderstorms 94 34.4 70 21.1 46 46 Calm 30.09 1019 10 16 0.00 0.00
4:53 pm 16:53 Mostly Cloudy with Nearby Thunderstorms 91 32.8 69 20.6 49 49 Calm 30.10 1019 10 16 0.00 0.00
5:53 pm 17:53 Partly Cloudy with Nearby Thunderstorms 83 28.3 69 20.6 63 63 Calm 30.11 1020 10 16 0.00 0.00
6:16 pm 18:16 Sunny 80 26.7 68 20 67 67 Calm 30.09 1019 10 16 0.00 0.00
6:53 pm 18:53 Sunny 82 27.8 69 20.6 65 65 Calm 30.09 1019 10 16 0.00 0.00
7:53 pm 19:53 Mostly Sunny 82 27.8 70 21.1 67 67 Calm 30.10 1019 10 16 0.00 0.00
8:53 pm 20:53 Mostly Cloudy 81 27.2 69 20.6 67 67 S 10 17 30.15 1021 10 16 0.00 0.00
9:53 pm 21:53 Clear 77 25 70 21.1 79 79 S 5 7 30.15 1021 10 16 0.00 0.03
10:53 pm 22:53 Clear 76 24.4 69 20.6 79 79 N 3 6 30.16 1021 10 16 0.00 0.00
11:53 pm 23:53 Clear 74 23.3 71 21.7 91 91 Calm 30.14 1021 10 16 0.00 0.00

Powered by AerisWeather